Farmington, NM

9:37 AM MDT on July 26, 2017 (GMT -0600)
Four Corners Regional

Weather History for KFMN - March, 2013

Change the Weather History Date:

Thursday, March 14, 2013

  Actual Average Record
Temperature  
Mean Temperature 49 °F -  
Max Temperature 71 °F 57 °F 75 °F (2007)
Min Temperature 28 °F 28 °F 9 °F (1988)
Degree Days  
Heating Degree Days 16    
Moisture  
Dew Point 22 °F    
Average Humidity 36    
Maximum Humidity 75    
Minimum Humidity 6    
Precipitation  
Precipitation 0.00 in - - ()
Sea Level Pressure  
Sea Level Pressure 30.27 in    
Wind  
Wind Speed 5 mph (NNW)    
Max Wind Speed 15 mph    
Max Gust Speed 17 mph    
Visibility 10 miles    
Events      
Averages and records for this station are not official NWS values.
T = Trace of Precipitation, MM = Missing Value Source: NWS Daily Summary

Daily Weather History Graph

Daily Weather History Graph

Search for Another Location

Airport or City:

Trip Planner

Search our weather history database for the weather conditions in past years. The results will help you decide how hot, cold, wet, or windy it might be!

Date:

Astronomy

Mar. 14, 2013 Rise Set
Actual Time 7:24 AM MDT 7:19 PM MDT
Civil Twilight 6:59 AM MDT 7:45 PM MDT
Nautical Twilight 6:29 AM MDT 8:15 PM MDT
Astronomical Twilight 5:58 AM MDT 8:45 PM MDT
Moon 8:46 AM MDT (3/14) 10:32 PM MDT (3/14)
Length of Visible Light 12h 46m
Length of Day
11h 54m
Waxing Crescent, 9% of the Moon is Illuminated
Mar 14
Waxing Crescent
Mar 19
First Quarter
Mar 27
Full
Apr 2
Last Quarter
Apr 10
New

Hourly Weather History & Observations

Time (MDT) Temp. Windchill Dew Point Humidity Pressure Visibility Wind Dir Wind Speed Gust Speed Precip Events Conditions
12:53 AM 46.0 °F 44.8 °F 24.1 °F 42% 30.26 in 10.0 mi NW 3.5 mph - N/A   Clear
1:53 AM 39.0 °F 34.8 °F 24.1 °F 55% 30.27 in 10.0 mi NNW 5.8 mph - N/A   Clear
2:53 AM 35.1 °F - 23.0 °F 61% 30.28 in 10.0 mi Calm Calm - N/A   Clear
3:53 AM 33.1 °F 27.7 °F 21.9 °F 64% 30.28 in 10.0 mi NE 5.8 mph - N/A   Clear
4:53 AM 34.0 °F 28.0 °F 24.1 °F 67% 30.28 in 10.0 mi ENE 6.9 mph - N/A   Clear
5:53 AM 35.1 °F 27.9 °F 25.0 °F 67% 30.29 in 10.0 mi East 9.2 mph - N/A   Clear
6:53 AM 30.0 °F 24.1 °F 21.9 °F 72% 30.34 in 10.0 mi ENE 5.8 mph - N/A   Clear
7:53 AM 30.0 °F 24.1 °F 23.0 °F 75% 30.37 in 10.0 mi East 5.8 mph - N/A   Clear
8:53 AM 37.9 °F 31.5 °F 27.0 °F 65% 30.38 in 10.0 mi ESE 9.2 mph - N/A   Clear
9:53 AM 42.1 °F 37.7 °F 27.0 °F 55% 30.39 in 10.0 mi East 6.9 mph - N/A   Clear
10:53 AM 51.1 °F - 28.0 °F 41% 30.35 in 10.0 mi ESE 4.6 mph - N/A   Clear
11:53 AM 55.9 °F - 23.0 °F 28% 30.34 in 10.0 mi Calm Calm - N/A   Clear
12:53 PM 62.1 °F - 24.1 °F 23% 30.30 in 10.0 mi WSW 8.1 mph - N/A   Clear
1:53 PM 64.0 °F - 21.9 °F 20% 30.28 in 10.0 mi Variable 3.5 mph - N/A   Clear
2:53 PM 68.0 °F - 21.0 °F 17% 30.25 in 10.0 mi West 8.1 mph - N/A   Clear
3:53 PM 70.0 °F - 19.0 °F 14% 30.22 in 10.0 mi WNW 11.5 mph 17.3 mph N/A   Clear
4:53 PM 71.1 °F - 18.0 °F 13% 30.20 in 10.0 mi West 10.4 mph - N/A   Clear
5:53 PM 70.0 °F - 18.0 °F 14% 30.19 in 10.0 mi West 11.5 mph - N/A   Clear
6:53 PM 66.9 °F - 18.0 °F 15% 30.20 in 10.0 mi West 15.0 mph - N/A   Clear
7:53 PM 60.1 °F - 19.0 °F 20% 30.22 in 10.0 mi West 4.6 mph - N/A   Clear
8:53 PM 57.0 °F - 19.0 °F 23% 30.21 in 10.0 mi Calm Calm - N/A   Clear
9:53 PM 55.9 °F - 19.9 °F 25% 30.22 in 10.0 mi West 6.9 mph - N/A   Clear
10:53 PM 53.1 °F - 21.0 °F 29% 30.21 in 10.0 mi Calm Calm - N/A   Clear
11:53 PM 51.1 °F - 21.0 °F 31% 30.20 in 10.0 mi SSE 3.5 mph - N/A   Clear